Theta_e
308 309 311 310 308 310 308 311 312 310 311 311 310 309 308 308 305 304 304 303 303 303 305 304 305 305 305 306 308 310 311 311 313 316 318 318 320 321 322 323 324 324 324 323
309 310 309 309 308 311 311 312 311 310 310 311 310 310 309 308 306 306 307 306 305 304 300 301 303 304 304 306 308 310 311 312 313 316 317 316 318 316 318 318 318 318 319 319
310 312 309 310 310 311 310 310 310 312 311 308 309 310 309 308 306 306 305 306 305 306 305 300 299 301 303 305 307 310 311 311 313 314 315 314 313 311 310 310 312 312 314 314
310 310 312 311 311 311 312 309 310 312 313 313 310 313 310 310 309 308 308 306 306 306 303 301 299 299 302 304 306 309 311 311 312 313 313 314 313 304 306 310 310 310 310 309
312 311 312 312 312 310 312 310 310 312 311 313 311 313 311 310 311 311 311 309 306 305 302 301 300 301 302 303 305 308 310 310 311 311 311 311 310 309 309 306 305 304 303 303
310 309 310 312 310 310 309 311 310 309 310 315 312 312 313 311 312 311 310 310 307 304 301 300 300 301 301 303 305 307 309 308 308 309 310 309 311 307 302 298 298 296 297 296
311 311 310 310 312 310 311 313 315 313 313 316 310 312 314 310 310 309 311 309 306 305 301 298 297 298 301 302 304 306 307 306 307 306 306 305 308 308 307 301 298 294 291 289
312 311 310 309 312 313 311 313 314 313 312 311 310 314 313 309 308 307 306 306 306 303 300 297 296 298 301 302 303 304 305 304 305 305 304 304 305 305 302 302 298 297 292 290
310 311 310 309 310 312 312 314 312 313 297 309 310 309 309 309 309 308 307 306 306 302 301 297 296 299 300 301 302 303 304 303 304 303 302 302 302 301 299 298 296 292 291 289
311 312 310 310 310 310 311 310 314 311 313 311 311 312 313 315 311 310 309 309 307 303 301 296 295 298 300 301 302 303 304 302 303 302 301 300 300 299 298 298 296 292 289 288
311 313 311 310 310 311 312 313 312 312 311 312 311 313 308 311 311 311 310 309 307 304 300 296 295 297 299 301 301 302 303 302 300 300 300 298 298 298 299 297 294 290 288 288
310 312 314 312 308 307 309 311 311 312 311 309 311 316 309 309 308 308 309 309 307 303 300 296 294 296 297 299 299 300 300 300 301 301 298 297 300 297 296 294 291 289 288 287
312 316 314 315 312 308 310 309 310 309 306 311 313 316 306 307 306 308 308 307 304 302 298 294 292 292 294 295 296 297 298 298 300 299 297 295 297 297 293 292 290 288 287 286
314 316 316 319 315 311 310 309 310 313 315 316 314 315 313 311 310 307 306 304 303 302 298 294 292 291 293 294 294 295 295 297 298 298 296 295 295 296 293 291 289 287 286 286
316 316 315 315 312 311 311 311 311 313 314 314 315 314 314 312 310 309 307 306 305 302 299 295 294 292 292 292 293 293 294 294 296 295 294 294 295 294 291 289 287 287 286 285
315 318 315 317 315 313 314 311 311 312 313 313 314 314 314 311 309 308 307 308 306 302 301 298 295 292 292 292 292 292 292 292 293 293 292 292 291 289 288 287 286 286 285 285
316 315 316 321 316 314 318 316 317 314 313 313 315 314 313 314 312 311 311 306 307 304 303 302 297 295 294 292 293 292 291 290 291 290 290 290 289 288 287 286 286 285 285 284
314 313 315 320 316 322 316 312 314 316 315 313 313 314 314 313 312 309 308 308 306 306 305 301 299 297 296 294 293 292 291 289 289 289 288 288 288 287 286 285 285 284 284 284
316 314 318 321 321 319 315 312 312 313 316 314 313 312 312 312 307 311 306 305 307 305 303 302 304 301 298 294 293 291 290 288 288 288 287 287 287 286 286 285 284 284 284 283
312 317 316 317 322 322 315 311 309 311 319 314 313 314 314 312 314 315 308 305 303 301 300 300 301 300 297 294 292 290 288 287 287 287 287 287 287 287 286 285 285 285 285 285
315 316 319 319 321 317 307 299 307 319 314 298 304 311 311 311 312 303 300 301 297 296 296 297 296 294 293 292 291 288 287 286 287 287 287 286 286 286 286 286 286 288 285 284
315 316 319 318 320 321 301 306 313 306 296 295 301 301 303 302 300 299 297 296 294 294 294 292 290 289 289 290 289 286 286 287 287 287 287 286 286 286 286 286 286 285 283 284
313 312 314 316 315 309 300 306 303 297 299 298 300 300 299 298 298 296 295 293 291 291 291 290 289 287 288 288 289 286 287 287 287 287 286 286 286 286 286 285 284 284 285 286
302 303 309 310 307 309 303 301 298 296 298 297 296 297 296 297 296 295 293 292 291 285 287 288 287 285 286 288 289 289 287 288 287 287 286 286 286 286 286 286 286 287 287 285
301 301 305 307 305 301 301 299 299 297 293 293 293 295 295 294 294 293 290 286 285 284 287 288 287 285 286 288 289 289 289 289 289 288 287 287 287 287 287 287 287 287 287 286
299 302 307 307 304 303 303 297 298 295 293 292 293 293 291 292 292 289 287 286 285 285 287 287 286 286 286 287 287 287 289 290 290 288 287 287 287 286 286 284 282 282 283 282
Wind_Speed
3 4 7 13 7 3 5 4 4 4 3 4 8 10 11 8 6 10 11 11 14 16 23 25 29 29 27 25 25 23 23 22 24 25 25 23 23 21 20 21 20 21 21 19
4 6 10 5 5 4 3 3 5 5 3 3 8 14 13 7 9 10 16 15 16 12 9 17 30 32 33 32 29 27 27 27 27 28 27 25 25 21 22 22 21 20 20 20
8 5 4 7 4 5 4 6 5 7 3 4 5 8 9 7 6 7 10 14 12 17 17 11 20 34 36 36 35 33 32 31 30 32 30 24 25 22 22 22 23 22 21 22
6 4 5 4 5 8 7 8 6 4 2 5 1 6 7 6 10 9 14 11 19 19 11 8 18 25 34 41 38 36 34 34 34 35 33 33 34 27 24 28 26 24 23 23
8 8 6 6 7 8 6 5 7 3 3 3 3 1 7 2 7 13 14 16 16 14 11 14 17 29 35 34 40 38 35 36 36 36 35 34 33 31 30 30 28 26 24 24
4 1 6 7 2 5 8 6 6 4 2 5 10 8 10 6 10 7 10 14 11 8 9 8 16 23 28 33 37 39 38 38 37 37 36 36 36 34 32 32 31 29 28 28
2 5 3 3 6 3 2 6 2 3 1 10 2 4 18 4 8 12 14 13 7 5 6 8 10 17 23 30 34 37 39 38 40 38 37 36 36 37 37 37 36 35 34 33
10 10 11 7 9 9 9 8 6 8 5 6 3 8 7 10 9 10 8 11 4 5 6 8 8 16 21 27 33 36 39 35 40 40 37 36 35 36 36 39 40 40 40 39
6 7 2 3 3 11 7 8 4 1 2 2 6 8 9 11 12 9 12 6 9 8 8 8 8 18 21 26 31 34 36 35 39 40 38 37 36 36 37 39 40 42 43 40
4 5 1 2 2 1 6 6 3 2 3 5 6 6 8 5 11 13 10 13 6 6 7 7 7 18 23 26 30 33 35 36 40 41 39 38 37 35 36 39 42 42 41 41
7 5 2 1 7 9 3 5 2 4 5 5 3 8 8 13 12 9 10 6 6 8 8 7 7 16 21 23 28 33 36 36 37 40 39 37 37 36 37 40 42 43 43 42
9 4 12 12 2 3 3 5 8 5 5 3 3 16 5 9 7 8 9 5 1 4 5 5 7 15 19 24 29 33 36 38 41 42 40 39 37 37 38 40 43 45 44 42
7 3 2 7 1 2 5 5 6 5 3 11 6 20 4 4 7 5 7 6 4 3 4 5 6 8 16 23 28 31 36 38 39 40 40 38 38 39 39 41 44 45 43 42
11 6 9 12 4 5 6 7 12 13 7 23 12 32 10 4 7 7 9 8 8 6 7 6 7 8 16 21 25 30 34 39 41 40 41 41 41 41 41 42 45 46 44 42
8 10 14 21 7 5 7 6 12 20 28 9 32 18 29 16 12 10 10 6 9 9 8 9 10 10 15 20 24 28 31 37 41 41 42 44 42 41 41 43 45 45 43 42
8 6 8 17 18 8 7 8 16 22 22 20 29 27 13 9 6 6 12 15 11 10 11 11 10 10 16 24 27 29 32 37 40 40 41 40 40 40 41 43 44 44 43 42
9 6 6 13 10 8 9 27 25 19 19 20 21 37 11 21 16 18 15 12 14 11 14 14 13 14 21 28 30 33 32 33 38 36 37 39 40 40 41 43 43 44 44 42
7 11 6 7 4 12 13 6 21 22 27 24 27 34 32 18 16 11 11 12 13 15 12 9 9 17 26 26 29 27 31 34 34 33 35 38 38 37 38 41 42 41 41 41
15 11 7 10 16 10 9 8 8 10 19 20 27 30 30 24 5 24 9 13 17 11 11 12 18 21 19 25 27 28 29 30 30 33 34 37 39 38 40 40 40 40 38 37
24 17 8 4 9 10 12 11 9 6 11 17 17 25 27 7 9 22 3 2 6 7 9 10 13 14 19 21 26 29 27 29 28 28 31 36 38 39 38 36 37 36 34 36
14 15 22 19 10 4 5 4 6 10 7 5 4 13 11 8 9 1 5 6 4 5 10 8 5 9 13 19 26 23 23 22 23 27 29 32 34 35 36 37 35 33 33 32
7 6 9 10 11 15 7 2 10 5 2 4 1 3 4 5 8 6 6 6 7 6 4 0 6 8 13 20 24 20 18 20 23 26 28 29 30 30 32 32 30 31 30 29
4 6 3 8 5 1 8 6 4 8 8 7 7 6 4 4 4 6 5 6 5 5 2 4 11 13 11 17 21 21 19 20 23 25 25 26 27 27 28 28 28 28 28 27
4 4 4 1 5 9 5 4 2 6 4 3 3 5 8 7 5 3 4 3 2 3 2 6 13 13 14 15 16 18 22 21 23 24 24 25 26 24 24 24 26 27 29 28
5 5 5 5 7 5 9 8 8 10 5 4 6 4 5 4 5 5 5 2 1 1 5 10 14 15 14 15 15 18 21 23 23 23 24 25 25 27 28 28 29 30 30 31
5 6 4 4 4 3 4 4 2 7 8 8 5 1 1 1 3 2 2 4 3 5 6 12 14 18 16 17 17 17 17 18 20 20 21 23 23 23 24 24 19 19 19 20
Wind_Direction
8 104 207 210 194 128 138 179 222 249 242 184 238 261 260 264 222 250 245 239 240 236 247 235 230 222 220 219 215 211 205 200 195 191 184 184 181 184 184 185 185 184 182 184
46 226 230 128 165 175 145 185 248 281 246 198 273 265 262 228 237 215 232 235 237 237 218 211 221 216 216 215 213 208 205 200 198 198 191 187 184 181 182 179 176 177 180 181
172 217 124 153 160 165 212 192 220 228 330 244 315 279 253 257 241 255 246 238 239 232 233 212 201 211 213 214 212 208 204 200 200 200 193 186 180 177 177 179 177 176 182 182
235 233 152 177 194 157 239 206 174 184 62 251 121 287 281 247 246 233 249 231 238 237 234 201 202 206 209 214 213 210 205 200 202 200 195 191 184 171 185 180 178 178 181 182
236 177 178 191 200 168 224 131 160 136 174 323 176 256 251 302 266 258 248 246 240 235 211 214 205 210 211 206 210 208 204 201 201 200 201 197 192 190 186 181 178 176 175 180
236 144 169 198 115 159 150 84 58 53 98 278 179 165 261 200 218 259 257 251 246 224 219 220 211 209 204 206 206 205 204 204 203 202 203 203 200 191 182 178 175 172 172 173
113 215 188 159 93 53 144 107 305 327 40 241 69 168 251 305 258 225 246 262 266 225 198 199 188 189 188 192 196 198 200 200 204 205 205 205 205 199 193 185 181 174 173 174
202 258 164 192 191 165 200 166 172 210 202 264 136 228 249 242 265 265 258 258 227 191 218 216 200 193 193 192 193 192 195 194 201 206 206 206 207 202 198 194 187 185 182 179
172 261 221 165 154 157 196 208 240 82 94 359 232 278 293 255 267 264 251 301 259 222 235 220 195 200 195 193 195 194 192 194 200 204 205 206 207 204 201 196 193 188 183 178
227 282 101 324 131 25 175 165 79 339 196 249 265 264 227 272 246 254 262 250 264 237 245 216 198 198 201 200 199 196 198 196 199 203 205 207 206 204 203 200 196 192 183 180
195 173 231 120 216 168 137 207 175 141 161 193 287 262 214 220 223 226 246 243 218 224 236 226 198 203 205 203 198 195 198 199 201 204 204 205 204 203 205 204 200 192 186 183
208 195 245 224 254 253 286 239 167 150 219 242 170 268 159 219 271 234 254 274 212 218 237 226 197 189 194 197 199 198 198 201 205 204 204 206 206 205 206 205 200 193 190 187
171 148 292 311 345 327 218 201 187 114 77 226 165 256 328 24 311 258 252 270 270 199 202 202 200 195 196 198 199 199 200 203 206 204 205 205 206 207 207 205 200 194 192 190
139 161 195 231 194 137 190 200 191 194 211 243 230 258 261 297 260 291 284 250 258 238 219 207 211 208 205 205 203 201 203 205 207 205 205 207 208 208 208 205 200 196 195 193
150 214 215 242 246 176 195 192 200 208 230 204 252 246 255 240 254 256 249 255 231 237 226 221 216 209 204 204 208 207 206 205 207 205 205 208 210 209 207 203 199 197 196 197
169 236 191 250 243 209 241 217 218 218 233 239 254 260 270 231 237 243 243 251 256 240 233 233 221 200 207 205 205 203 205 205 204 202 203 206 207 203 202 201 199 198 197 198
188 197 188 240 231 189 234 238 239 229 231 223 243 250 245 262 246 246 252 233 243 241 236 231 216 214 215 209 203 204 200 198 200 200 200 202 203 200 200 199 198 199 198 198
188 201 205 238 148 218 232 191 219 219 232 226 244 255 257 259 261 253 237 246 238 240 246 236 221 224 224 215 206 201 196 196 194 195 196 200 197 192 196 197 198 199 200 201
223 202 232 225 237 250 286 245 167 172 250 228 230 249 260 260 336 273 234 219 241 231 233 237 242 238 225 211 202 191 187 189 187 193 192 192 191 187 194 194 194 196 198 201
216 239 225 189 224 235 240 238 152 108 256 249 215 241 253 235 242 266 56 327 271 274 272 267 262 235 209 200 192 180 179 183 190 189 188 192 191 192 189 188 192 196 200 207
207 214 229 241 252 268 255 233 129 166 230 325 297 247 272 210 235 346 347 309 338 310 313 301 238 207 196 182 180 170 173 184 187 190 190 190 194 194 194 193 192 198 204 206
200 214 222 220 230 237 185 110 175 185 270 178 21 339 322 303 306 311 305 302 321 320 336 71 127 132 157 170 172 158 167 183 186 185 186 187 188 189 190 190 193 199 194 199
260 226 205 201 214 238 207 210 208 168 174 197 174 189 195 273 296 320 319 336 342 341 350 128 137 125 147 167 174 155 162 169 171 173 176 182 184 189 192 185 185 189 195 202
231 225 212 245 247 248 227 272 245 213 229 175 225 217 178 189 194 260 309 322 327 355 47 125 126 120 127 159 164 162 158 165 166 167 174 177 174 176 186 187 193 200 207 208
233 152 199 265 282 292 265 230 215 227 240 203 187 227 257 193 199 182 161 208 233 62 115 146 137 132 130 146 148 156 159 165 165 168 173 176 181 186 190 199 207 213 223 222
201 184 191 243 249 260 278 347 250 213 212 217 192 206 270 267 163 121 144 136 141 113 131 133 133 131 130 131 130 148 163 170 164 164 174 180 182 185 189 189 189 209 223 224